Ames, IA

11:22 PM CDT on August 23, 2017 (GMT -0500)
Ames Municipal

Weather History for KAMW - December, 2010

Change the Weather History Date:

Thursday, December 9, 2010

  Actual Average Record
Temperature  
Mean Temperature 32 °F 25 °F  
Max Temperature 43 °F 33 °F 52 °F (2015)
Min Temperature 21 °F 16 °F -14 °F (2005)
Degree Days  
Heating Degree Days 33 40  
Month to date heating degree days 347  
Since 1 July heating degree days 1801  
Cooling Degree Days 0 0  
Month to date cooling degree days 0  
Year to date cooling degree days 752  
Moisture  
Dew Point 21 °F    
Average Humidity 72    
Maximum Humidity 89    
Minimum Humidity 58    
Precipitation  
Precipitation 0.00 in 0.04 in 0.29 in (1987)
Month to date precipitation 0.47  
Sea Level Pressure  
Sea Level Pressure 29.94 in    
Wind  
Wind Speed 10 mph (South)    
Max Wind Speed 16 mph    
Max Gust Speed 23 mph    
Visibility 9 miles    
Events      
T = Trace of Precipitation, MM = Missing Value Source: NWS Daily Summary

Daily Weather History Graph

Daily Weather History Graph

Search for Another Location

Airport or City:

Trip Planner

Search our weather history database for the weather conditions in past years. The results will help you decide how hot, cold, wet, or windy it might be!

Date:

Astronomy

Dec. 09, 2010 Rise Set
Actual Time 7:30 AM CST 4:42 PM CST
Civil Twilight 6:59 AM CST 5:14 PM CST
Nautical Twilight 6:24 AM CST 5:49 PM CST
Astronomical Twilight 5:50 AM CST 6:23 PM CST
Moon 10:28 AM CST (12/9) 8:50 PM CST (12/9)
Length of Visible Light 10h 15m
Length of Day
9h 12m
Waxing Crescent, 17% of the Moon is Illuminated
Dec 9
Waxing Crescent
Dec 13
First Quarter
Dec 21
Full
Dec 27
Last Quarter
Jan 4
New

Hourly Weather History & Observations

Time (CST) Temp. Windchill Dew Point Humidity Pressure Visibility Wind Dir Wind Speed Gust Speed Precip Events Conditions
1:53 AM 21.0 °F 10.6 °F 12.9 °F 71% 30.15 in 10.0 mi SE 9.2 mph - N/A   Clear
2:53 AM 21.9 °F 10.4 °F 12.9 °F 68% 30.12 in 10.0 mi SE 11.5 mph - N/A   Clear
3:53 AM 21.9 °F 9.8 °F 12.9 °F 68% 30.08 in 10.0 mi SE 12.7 mph 19.6 mph N/A   Clear
4:53 AM 21.9 °F 9.8 °F 14.0 °F 72% 30.04 in 10.0 mi SE 12.7 mph - N/A   Clear
5:53 AM 24.1 °F 13.1 °F 15.1 °F 69% 30.02 in 10.0 mi SSE 11.5 mph - N/A   Clear
6:53 AM 25.0 °F 14.2 °F 16.0 °F 69% 30.00 in 10.0 mi SSE 11.5 mph - N/A   Partly Cloudy
7:07 AM 24.8 °F 14.0 °F 15.8 °F 69% 29.96 in 10.0 mi SE 11.5 mph - N/A   Mostly Cloudy
7:53 AM 26.1 °F 15.6 °F 17.1 °F 69% 29.98 in 10.0 mi SE 11.5 mph - N/A   Overcast
8:53 AM 28.0 °F 17.5 °F 18.0 °F 66% 29.96 in 10.0 mi SSE 12.7 mph - N/A   Overcast
9:32 AM 30.2 °F 19.3 °F 19.4 °F 64% 29.91 in 10.0 mi SSE 15.0 mph 21.9 mph N/A   Scattered Clouds
9:53 AM 30.9 °F 19.8 °F 19.0 °F 61% 29.92 in 10.0 mi SE 16.1 mph 23.0 mph N/A   Clear
10:53 AM 34.0 °F 24.2 °F 21.9 °F 61% 29.90 in 9.0 mi SSE 15.0 mph 21.9 mph N/A   Clear
11:53 AM 37.0 °F 27.7 °F 24.1 °F 59% 29.85 in 9.0 mi SSE 16.1 mph - N/A   Clear
12:53 PM 39.9 °F 32.5 °F 26.1 °F 58% 29.83 in 9.0 mi South 12.7 mph - N/A   Partly Cloudy
3:53 PM 43.0 °F 39.5 °F 30.9 °F 62% 29.81 in 7.0 mi WSW 5.8 mph - N/A   Clear
4:53 PM 32.0 °F 26.4 °F 26.1 °F 79% 29.83 in 6.0 mi WSW 5.8 mph - N/A   Haze
5:53 PM 28.9 °F 21.9 °F 24.1 °F 82% 29.86 in 6.0 mi West 6.9 mph - N/A   Haze
6:53 PM 27.0 °F 18.7 °F 24.1 °F 89% 29.87 in 7.0 mi WSW 8.1 mph - N/A   Clear
7:53 PM 33.1 °F 26.9 °F 28.0 °F 82% 29.87 in 8.0 mi West 6.9 mph - N/A   Clear
8:53 PM 28.9 °F 20.4 °F 25.0 °F 85% 29.88 in 8.0 mi West 9.2 mph - N/A   Clear
9:53 PM 27.0 °F - 23.0 °F 85% 29.89 in 8.0 mi Calm Calm - N/A   Clear
10:53 PM 27.0 °F - 23.0 °F 85% 29.90 in 8.0 mi Calm Calm - N/A   Clear
11:53 PM 28.0 °F 21.7 °F 23.0 °F 81% 29.91 in 9.0 mi WNW 5.8 mph - N/A   Clear